Time,TemperatureF,DewpointF,PressureIn,WindDirection,WindDirectionDegrees,WindSpeedMPH,WindSpeedGustMPH,Humidity,HourlyPrecipIn,Conditions,Clouds,dailyrainin,SoftwareType,DateUTC
2013-05-03 00:01:00,25.3,13.8,30.58,NNW,335,0.0,0.0,61,0.00,,---,0.00,VWS V14.01,2013-05-03 06:01:00,
2013-05-03 00:06:00,24.7,13.6,30.57,NNW,335,3.0,4.0,62,0.00,,---,0.00,VWS V14.01,2013-05-03 06:06:00,
2013-05-03 00:11:00,24.2,13.4,30.58,NNW,335,1.0,3.0,63,0.00,,---,0.00,VWS V14.01,2013-05-03 06:11:00,
2013-05-03 00:16:00,23.9,13.1,30.57,NNW,335,1.0,2.0,63,0.00,,---,0.00,VWS V14.01,2013-05-03 06:16:00,
2013-05-03 00:21:00,23.7,13.0,30.57,NNW,335,6.0,7.0,63,0.00,,---,0.00,VWS V14.01,2013-05-03 06:21:00,
2013-05-03 00:26:00,23.3,12.6,30.58,NNW,338,9.0,9.0,63,0.00,,---,0.00,VWS V14.01,2013-05-03 06:26:00,
2013-05-03 00:31:00,23.2,12.1,30.58,NNW,345,6.0,7.0,62,0.00,,---,0.00,VWS V14.01,2013-05-03 06:31:00,
2013-05-03 00:37:00,23.0,13.0,30.57,NNW,345,6.0,6.0,65,0.00,,---,0.00,VWS V14.01,2013-05-03 06:37:00,
2013-05-03 00:42:00,22.7,12.7,30.58,NNW,345,6.0,6.0,65,0.00,,---,0.00,VWS V14.01,2013-05-03 06:42:00,
2013-05-03 00:47:00,22.5,13.2,30.57,NNW,345,0.0,2.0,67,0.00,,---,0.00,VWS V14.01,2013-05-03 06:47:00,
2013-05-03 00:52:00,22.4,12.8,30.57,NNW,345,2.0,4.0,66,0.00,,---,0.00,VWS V14.01,2013-05-03 06:52:00,
2013-05-03 00:57:00,22.3,12.7,30.57,NNW,345,2.0,2.0,66,0.00,,---,0.00,VWS V14.01,2013-05-03 06:57:00,
2013-05-03 01:02:00,22.4,12.8,30.57,NNW,345,3.0,3.0,66,0.00,,---,0.00,VWS V14.01,2013-05-03 07:02:00,
2013-05-03 01:07:00,22.3,12.7,30.57,NNW,345,5.0,6.0,66,0.00,,---,0.00,VWS V14.01,2013-05-03 07:07:00,
2013-05-03 01:12:00,22.1,12.8,30.56,NNW,345,6.0,6.0,67,0.00,,---,0.00,VWS V14.01,2013-05-03 07:12:00,
2013-05-03 01:17:00,21.9,12.3,30.56,NNW,345,0.0,2.0,66,0.00,,---,0.00,VWS V14.01,2013-05-03 07:17:00,
2013-05-03 01:22:00,22.0,13.7,30.56,NNW,345,2.0,2.0,70,0.00,,---,0.00,VWS V14.01,2013-05-03 07:22:00,
2013-05-03 01:27:00,21.9,13.6,30.56,NNW,345,0.0,0.0,70,0.00,,---,0.00,VWS V14.01,2013-05-03 07:27:00,
2013-05-03 01:32:00,21.6,13.0,30.56,NNW,345,1.0,4.0,69,0.00,,---,0.00,VWS V14.01,2013-05-03 07:32:00,
2013-05-03 01:37:00,21.4,12.5,30.55,NNW,345,4.0,5.0,68,0.00,,---,0.00,VWS V14.01,2013-05-03 07:37:00,
2013-05-03 01:42:00,21.1,12.5,30.55,NNW,345,2.0,3.0,69,0.00,,---,0.00,VWS V14.01,2013-05-03 07:42:00,
2013-05-03 01:47:00,20.9,13.0,30.55,NNW,345,2.0,2.0,71,0.00,,---,0.00,VWS V14.01,2013-05-03 07:47:00,
2013-05-03 01:52:00,20.6,13.0,30.55,NNW,345,0.0,0.0,72,0.00,,---,0.00,VWS V14.01,2013-05-03 07:52:00,
2013-05-03 01:57:00,20.4,13.1,30.55,NNW,345,3.0,3.0,73,0.00,,---,0.00,VWS V14.01,2013-05-03 07:57:00,
2013-05-03 02:02:00,20.3,12.4,30.55,NNW,345,6.0,6.0,71,0.00,,---,0.00,VWS V14.01,2013-05-03 08:02:00,
2013-05-03 02:07:00,20.4,11.9,30.54,NNW,345,4.0,4.0,69,0.00,,---,0.00,VWS V14.01,2013-05-03 08:07:00,
2013-05-03 02:12:00,20.7,12.1,30.54,NNW,345,4.0,5.0,69,0.00,,---,0.00,VWS V14.01,2013-05-03 08:12:00,
2013-05-03 02:17:00,20.7,11.8,30.54,NNW,345,5.0,6.0,68,0.00,,---,0.00,VWS V14.01,2013-05-03 08:17:00,
2013-05-03 02:22:00,20.8,11.9,30.54,NNW,344,6.0,6.0,68,0.00,,---,0.00,VWS V14.01,2013-05-03 08:22:00,
2013-05-03 02:27:00,20.8,11.9,30.54,NNW,344,6.0,7.0,68,0.00,,---,0.00,VWS V14.01,2013-05-03 08:27:00,
2013-05-03 02:32:00,20.8,11.9,30.54,NNW,344,0.0,0.0,68,0.00,,---,0.00,VWS V14.01,2013-05-03 08:32:00,
2013-05-03 02:37:00,20.7,11.8,30.54,NNW,344,0.0,0.0,68,0.00,,---,0.00,VWS V14.01,2013-05-03 08:37:00,
2013-05-03 02:42:00,20.7,11.5,30.54,NNW,344,0.0,1.0,67,0.00,,---,0.00,VWS V14.01,2013-05-03 08:42:00,
2013-05-03 02:47:00,20.6,12.1,30.54,NNW,344,0.0,0.0,69,0.00,,---,0.00,VWS V14.01,2013-05-03 08:47:00,
2013-05-03 02:52:00,20.4,12.2,30.54,NNW,344,0.0,0.0,70,0.00,,---,0.00,VWS V14.01,2013-05-03 08:52:00,
2013-05-03 02:57:00,20.1,11.6,30.54,NNW,344,3.0,3.0,69,0.00,,---,0.00,VWS V14.01,2013-05-03 08:57:00,
2013-05-03 03:02:00,20.1,11.6,30.54,NNW,344,4.0,6.0,69,0.00,,---,0.00,VWS V14.01,2013-05-03 09:02:00,
2013-05-03 03:07:00,20.2,11.0,30.54,NNW,344,4.0,6.0,67,0.00,,---,0.00,VWS V14.01,2013-05-03 09:07:00,
2013-05-03 03:12:00,20.2,11.4,30.54,NNW,344,3.0,3.0,68,0.00,,---,0.00,VWS V14.01,2013-05-03 09:12:00,
2013-05-03 03:17:00,20.3,11.1,30.54,NNW,344,0.0,0.0,67,0.00,,---,0.00,VWS V14.01,2013-05-03 09:17:00,
2013-05-03 03:22:00,20.3,11.4,30.54,NNW,344,0.0,0.0,68,0.00,,---,0.00,VWS V14.01,2013-05-03 09:22:00,
2013-05-03 03:27:00,20.2,11.4,30.54,NNW,344,1.0,2.0,68,0.00,,---,0.00,VWS V14.01,2013-05-03 09:27:00,
2013-05-03 03:32:00,20.1,11.2,30.54,NNW,344,0.0,0.0,68,0.00,,---,0.00,VWS V14.01,2013-05-03 09:32:00,
2013-05-03 03:37:00,20.0,11.1,30.54,NNW,344,0.0,0.0,68,0.00,,---,0.00,VWS V14.01,2013-05-03 09:37:00,
2013-05-03 03:42:00,19.9,11.7,30.54,NNW,344,1.0,1.0,70,0.00,,---,0.00,VWS V14.01,2013-05-03 09:42:00,
2013-05-03 03:47:00,19.7,11.5,30.53,NNW,344,0.0,0.0,70,0.00,,---,0.00,VWS V14.01,2013-05-03 09:47:00,
2013-05-03 03:52:00,19.5,11.3,30.54,NNW,344,2.0,2.0,70,0.00,,---,0.00,VWS V14.01,2013-05-03 09:52:00,
2013-05-03 03:57:00,19.5,11.0,30.54,NNW,344,3.0,3.0,69,0.00,,---,0.00,VWS V14.01,2013-05-03 09:57:00,
2013-05-03 04:02:00,19.2,11.0,30.53,NNW,344,6.0,6.0,70,0.00,,---,0.00,VWS V14.01,2013-05-03 10:02:00,
2013-05-03 04:07:00,18.9,11.1,30.53,NNW,344,2.0,3.0,71,0.00,,---,0.00,VWS V14.01,2013-05-03 10:07:00,
2013-05-03 04:12:00,18.9,10.4,30.53,NNW,344,0.0,0.0,69,0.00,,---,0.00,VWS V14.01,2013-05-03 10:12:00,
2013-05-03 04:17:00,18.9,10.4,30.53,NNW,344,0.0,1.0,69,0.00,,---,0.00,VWS V14.01,2013-05-03 10:17:00,
2013-05-03 04:23:00,18.9,10.8,30.53,NNW,344,0.0,0.0,70,0.00,,---,0.00,VWS V14.01,2013-05-03 10:23:00,
2013-05-03 04:28:00,18.7,10.9,30.53,NNW,344,3.0,3.0,71,0.00,,---,0.00,VWS V14.01,2013-05-03 10:28:00,
2013-05-03 04:33:00,18.6,10.8,30.53,NNW,344,6.0,7.0,71,0.00,,---,0.00,VWS V14.01,2013-05-03 10:33:00,
2013-05-03 04:38:00,18.8,10.6,30.53,NNW,344,2.0,4.0,70,0.00,,---,0.00,VWS V14.01,2013-05-03 10:38:00,
2013-05-03 04:43:00,18.9,10.4,30.52,NNW,344,3.0,3.0,69,0.00,,---,0.00,VWS V14.01,2013-05-03 10:43:00,
2013-05-03 04:48:00,19.0,10.8,30.52,NNW,344,3.0,3.0,70,0.00,,---,0.00,VWS V14.01,2013-05-03 10:48:00,
2013-05-03 04:53:00,18.7,10.9,30.52,NNW,344,2.0,3.0,71,0.00,,---,0.00,VWS V14.01,2013-05-03 10:53:00,
2013-05-03 04:58:00,18.5,11.0,30.52,NNW,344,4.0,5.0,72,0.00,,---,0.00,VWS V14.01,2013-05-03 10:58:00,
2013-05-03 05:03:00,18.5,11.0,30.52,NNW,344,0.0,0.0,72,0.00,,---,0.00,VWS V14.01,2013-05-03 11:03:00,
2013-05-03 05:08:00,18.5,11.0,30.52,NNW,344,0.0,3.0,72,0.00,,---,0.00,VWS V14.01,2013-05-03 11:08:00,
2013-05-03 05:13:00,18.5,10.7,30.52,NNW,344,3.0,5.0,71,0.00,,---,0.00,VWS V14.01,2013-05-03 11:13:00,
2013-05-03 05:18:00,18.5,10.7,30.52,NNW,344,1.0,1.0,71,0.00,,---,0.00,VWS V14.01,2013-05-03 11:18:00,
2013-05-03 05:23:00,18.4,10.9,30.52,NNW,344,0.0,0.0,72,0.00,,---,0.00,VWS V14.01,2013-05-03 11:23:00,
2013-05-03 05:28:00,18.1,10.9,30.52,NNW,344,0.0,0.0,73,0.00,,---,0.00,VWS V14.01,2013-05-03 11:28:00,
2013-05-03 05:33:00,17.9,11.0,30.51,NNW,344,0.0,0.0,74,0.00,,---,0.00,VWS V14.01,2013-05-03 11:33:00,
2013-05-03 05:38:00,17.7,10.8,30.52,NNW,344,0.0,0.0,74,0.00,,---,0.00,VWS V14.01,2013-05-03 11:38:00,
2013-05-03 05:43:00,17.6,10.7,30.51,NNW,344,0.0,0.0,74,0.00,,---,0.00,VWS V14.01,2013-05-03 11:43:00,
2013-05-03 05:48:00,17.4,10.9,30.51,NNW,344,0.0,0.0,75,0.00,,---,0.00,VWS V14.01,2013-05-03 11:48:00,
2013-05-03 05:53:00,17.2,10.6,30.51,NNW,344,0.0,0.0,75,0.00,,---,0.00,VWS V14.01,2013-05-03 11:53:00,
2013-05-03 05:58:00,17.1,10.6,30.52,NNW,344,0.0,0.0,75,0.00,,---,0.00,VWS V14.01,2013-05-03 11:58:00,
2013-05-03 06:03:00,16.8,10.6,30.52,NNW,344,0.0,0.0,76,0.00,,---,0.00,VWS V14.01,2013-05-03 12:03:00,
2013-05-03 06:08:00,16.7,10.2,30.51,NNW,344,0.0,0.0,75,0.00,,---,0.00,VWS V14.01,2013-05-03 12:08:00,
2013-05-03 06:13:00,16.6,10.4,30.51,NNW,344,0.0,0.0,76,0.00,,---,0.00,VWS V14.01,2013-05-03 12:13:00,
2013-05-03 06:18:00,16.6,10.4,30.51,NNW,344,0.0,0.0,76,0.00,,---,0.00,VWS V14.01,2013-05-03 12:18:00,
2013-05-03 06:23:00,16.5,10.0,30.51,NNW,344,0.0,0.0,75,0.00,,---,0.00,VWS V14.01,2013-05-03 12:23:00,
2013-05-03 06:28:00,16.4,10.2,30.51,NNW,344,0.0,0.0,76,0.00,,---,0.00,VWS V14.01,2013-05-03 12:28:00,
2013-05-03 06:33:00,16.3,10.1,30.51,NNW,344,3.0,3.0,76,0.00,,---,0.00,VWS V14.01,2013-05-03 12:33:00,
2013-05-03 06:38:00,16.4,10.5,30.50,NNW,344,6.0,6.0,77,0.00,,---,0.00,VWS V14.01,2013-05-03 12:38:00,
2013-05-03 06:43:00,16.7,10.8,30.51,NNW,344,1.0,2.0,77,0.00,,---,0.00,VWS V14.01,2013-05-03 12:43:00,
2013-05-03 06:48:00,16.4,11.0,30.51,NNW,344,0.0,1.0,79,0.00,,---,0.00,VWS V14.01,2013-05-03 12:48:00,
2013-05-03 06:53:00,16.2,10.8,30.51,NNW,344,0.0,0.0,79,0.00,,---,0.00,VWS V14.01,2013-05-03 12:53:00,
2013-05-03 06:58:00,16.2,10.8,30.51,NNW,344,0.0,0.0,79,0.00,,---,0.00,VWS V14.01,2013-05-03 12:58:00,
2013-05-03 07:03:00,16.2,10.6,30.51,NNW,344,0.0,0.0,78,0.00,,---,0.00,VWS V14.01,2013-05-03 13:03:00,
2013-05-03 07:08:00,16.2,10.6,30.50,NNW,344,0.0,0.0,78,0.00,,---,0.00,VWS V14.01,2013-05-03 13:08:00,
2013-05-03 07:13:00,16.3,10.7,30.50,NNW,344,0.0,0.0,78,0.00,,---,0.00,VWS V14.01,2013-05-03 13:13:00,
2013-05-03 07:18:00,16.4,10.8,30.50,NNW,344,0.0,0.0,78,0.00,,---,0.00,VWS V14.01,2013-05-03 13:18:00,
2013-05-03 07:23:00,16.5,10.6,30.50,NNW,344,0.0,0.0,77,0.00,,---,0.00,VWS V14.01,2013-05-03 13:23:00,
2013-05-03 07:28:00,16.5,10.6,30.50,NNW,344,0.0,0.0,77,0.00,,---,0.00,VWS V14.01,2013-05-03 13:28:00,
2013-05-03 07:33:00,16.6,10.7,30.50,NNW,344,0.0,0.0,77,0.00,,---,0.00,VWS V14.01,2013-05-03 13:33:00,
2013-05-03 07:38:00,16.7,11.1,30.50,NNW,344,0.0,0.0,78,0.00,,---,0.00,VWS V14.01,2013-05-03 13:38:00,
2013-05-03 07:43:00,16.7,11.6,30.49,NNW,344,1.0,2.0,80,0.00,,---,0.00,VWS V14.01,2013-05-03 13:43:00,
2013-05-03 07:48:00,16.7,11.1,30.49,NNW,344,0.0,0.0,78,0.00,,---,0.00,VWS V14.01,2013-05-03 13:48:00,
2013-05-03 07:53:00,16.7,10.5,30.49,NNW,344,0.0,0.0,76,0.00,,---,0.00,VWS V14.01,2013-05-03 13:53:00,
2013-05-03 07:58:00,17.0,11.1,30.49,NNW,344,2.0,3.0,77,0.00,,---,0.00,VWS V14.01,2013-05-03 13:58:00,
2013-05-03 08:03:00,17.3,10.8,30.49,NNW,344,2.0,2.0,75,0.00,,---,0.00,VWS V14.01,2013-05-03 14:03:00,
2013-05-03 08:08:00,18.2,12.5,30.48,NNW,344,2.0,3.0,78,0.00,,---,0.00,VWS V14.01,2013-05-03 14:08:00,
2013-05-03 08:14:00,20.7,14.9,30.48,NNW,344,0.0,0.0,78,0.00,,---,0.00,VWS V14.01,2013-05-03 14:14:00,
2013-05-03 08:19:00,23.3,14.0,30.48,NNW,344,0.0,0.0,67,0.00,,---,0.00,VWS V14.01,2013-05-03 14:19:00,
2013-05-03 08:24:00,24.8,13.3,30.47,NNW,344,0.0,0.0,61,0.00,,---,0.00,VWS V14.01,2013-05-03 14:24:00,
2013-05-03 08:29:00,26.0,13.6,30.47,NNW,344,0.0,0.0,59,0.00,,---,0.00,VWS V14.01,2013-05-03 14:29:00,
2013-05-03 08:34:00,26.6,14.2,30.46,NNW,344,0.0,0.0,59,0.00,,---,0.00,VWS V14.01,2013-05-03 14:34:00,
2013-05-03 08:39:00,27.5,14.7,30.46,NNW,344,0.0,0.0,58,0.00,,---,0.00,VWS V14.01,2013-05-03 14:39:00,
2013-05-03 08:44:00,28.4,15.1,30.46,NNW,344,2.0,2.0,57,0.00,,---,0.00,VWS V14.01,2013-05-03 14:44:00,
2013-05-03 08:49:00,29.3,15.6,30.45,NNW,344,2.0,3.0,56,0.00,,---,0.00,VWS V14.01,2013-05-03 14:49:00,
2013-05-03 08:54:00,29.7,13.8,30.45,NNW,344,0.0,0.0,51,0.00,,---,0.00,VWS V14.01,2013-05-03 14:54:00,
2013-05-03 08:59:00,31.4,16.3,30.44,NNW,344,1.0,1.0,53,0.00,,---,0.00,VWS V14.01,2013-05-03 14:59:00,
2013-05-03 09:04:00,31.9,15.8,30.45,NNW,344,1.0,2.0,51,0.00,,---,0.00,VWS V14.01,2013-05-03 15:04:00,
2013-05-03 09:09:00,31.4,14.5,30.44,NNW,344,0.0,1.0,49,0.00,,---,0.00,VWS V14.01,2013-05-03 15:09:00,
2013-05-03 09:14:00,32.3,14.8,30.44,NNW,344,0.0,0.0,48,0.00,,---,0.00,VWS V14.01,2013-05-03 15:14:00,
2013-05-03 09:19:00,33.3,14.8,30.44,NNW,344,0.0,0.0,46,0.00,,---,0.00,VWS V14.01,2013-05-03 15:19:00,
2013-05-03 09:24:00,33.8,14.2,30.43,NNW,344,0.0,0.0,44,0.00,,---,0.00,VWS V14.01,2013-05-03 15:24:00,
2013-05-03 09:29:00,34.3,14.1,30.43,NNW,344,0.0,3.0,43,0.00,,---,0.00,VWS V14.01,2013-05-03 15:29:00,
2013-05-03 09:34:00,34.9,13.6,30.42,NNW,344,3.0,3.0,41,0.00,,---,0.00,VWS V14.01,2013-05-03 15:34:00,
2013-05-03 09:39:00,35.4,11.1,30.42,NNW,344,1.0,1.0,36,0.00,,---,0.00,VWS V14.01,2013-05-03 15:39:00,
2013-05-03 09:44:00,36.0,11.6,30.42,SSE,150,2.0,2.0,36,0.00,,---,0.00,VWS V14.01,2013-05-03 15:44:00,
2013-05-03 09:49:00,36.0,12.9,30.41,SSE,165,3.0,3.0,38,0.00,,---,0.00,VWS V14.01,2013-05-03 15:49:00,
2013-05-03 09:54:00,36.3,11.9,30.41,South,171,1.0,1.0,36,0.00,,---,0.00,VWS V14.01,2013-05-03 15:54:00,
2013-05-03 09:59:00,36.7,10.3,30.41,SSE,155,4.0,4.0,33,0.00,,---,0.00,VWS V14.01,2013-05-03 15:59:00,
2013-05-03 10:04:00,37.2,10.1,30.41,SSE,161,0.0,0.0,32,0.00,,---,0.00,VWS V14.01,2013-05-03 16:04:00,
2013-05-03 10:09:00,37.9,10.7,30.40,SSE,161,0.0,0.0,32,0.00,,---,0.00,VWS V14.01,2013-05-03 16:09:00,
2013-05-03 10:14:00,39.5,10.6,30.40,SE,140,2.0,3.0,30,0.00,,---,0.00,VWS V14.01,2013-05-03 16:14:00,
2013-05-03 10:19:00,38.9,8.6,30.39,SE,140,0.0,0.0,28,0.00,,---,0.00,VWS V14.01,2013-05-03 16:19:00,
2013-05-03 10:24:00,39.3,7.3,30.39,SE,126,0.0,0.0,26,0.00,,---,0.00,VWS V14.01,2013-05-03 16:24:00,
2013-05-03 10:29:00,40.8,11.0,30.39,South,169,6.0,6.0,29,0.00,,---,0.00,VWS V14.01,2013-05-03 16:29:00,
2013-05-03 10:34:00,40.3,6.4,30.39,South,182,5.0,6.0,24,0.00,,---,0.00,VWS V14.01,2013-05-03 16:34:00,
2013-05-03 10:39:00,40.6,6.7,30.38,SSW,194,4.0,4.0,24,0.00,,---,0.00,VWS V14.01,2013-05-03 16:39:00,
2013-05-03 10:44:00,41.5,8.3,30.38,SSW,194,1.0,1.0,25,0.00,,---,0.00,VWS V14.01,2013-05-03 16:44:00,
2013-05-03 10:49:00,41.7,7.6,30.38,SSW,195,6.0,6.0,24,0.00,,---,0.00,VWS V14.01,2013-05-03 16:49:00,
2013-05-03 10:54:00,42.0,4.9,30.38,SSW,196,4.0,4.0,21,0.00,,---,0.00,VWS V14.01,2013-05-03 16:54:00,
2013-05-03 10:59:00,42.3,6.2,30.38,SSW,195,3.0,4.0,22,0.00,,---,0.00,VWS V14.01,2013-05-03 16:59:00,
2013-05-03 11:04:00,43.6,8.3,30.37,SSW,197,1.0,1.0,23,0.00,,---,0.00,VWS V14.01,2013-05-03 17:04:00,
2013-05-03 11:09:00,44.0,7.6,30.36,NNE,30,6.0,7.0,22,0.00,,---,0.00,VWS V14.01,2013-05-03 17:09:00,
2013-05-03 11:14:00,43.2,6.9,30.36,NNE,18,4.0,7.0,22,0.00,,---,0.00,VWS V14.01,2013-05-03 17:14:00,
2013-05-03 11:19:00,44.1,5.6,30.35,NNE,28,7.0,8.0,20,0.00,,---,0.00,VWS V14.01,2013-05-03 17:19:00,
2013-05-03 11:24:00,43.7,3.0,30.35,North,5,1.0,2.0,18,0.00,,---,0.00,VWS V14.01,2013-05-03 17:24:00,
2013-05-03 11:29:00,43.9,1.9,30.35,North,5,7.0,7.0,17,0.00,,---,0.00,VWS V14.01,2013-05-03 17:29:00,
2013-05-03 11:34:00,44.2,7.8,30.35,North,355,6.0,9.0,22,0.00,,---,0.00,VWS V14.01,2013-05-03 17:34:00,
2013-05-03 11:39:00,44.3,4.7,30.35,North,350,6.0,8.0,19,0.00,,---,0.00,VWS V14.01,2013-05-03 17:39:00,
2013-05-03 11:44:00,45.2,9.6,30.34,NNW,340,0.0,7.0,23,0.00,,---,0.00,VWS V14.01,2013-05-03 17:44:00,
2013-05-03 11:49:00,45.6,6.9,30.33,NNW,340,5.0,5.0,20,0.00,,---,0.00,VWS V14.01,2013-05-03 17:49:00,
2013-05-03 11:55:00,45.4,8.8,30.33,NNW,338,5.0,8.0,22,0.00,,---,0.00,VWS V14.01,2013-05-03 17:55:00,
2013-05-03 12:00:00,45.9,7.1,30.33,NNW,333,6.0,6.0,20,0.00,,---,0.00,VWS V14.01,2013-05-03 18:00:00,
2013-05-03 12:05:00,46.2,9.5,30.33,NNW,327,7.0,7.0,22,0.00,,---,0.00,VWS V14.01,2013-05-03 18:05:00,
2013-05-03 12:10:00,46.2,8.4,30.32,NNW,342,9.0,10.0,21,0.00,,---,0.00,VWS V14.01,2013-05-03 18:10:00,
2013-05-03 12:15:00,46.1,9.4,30.32,North,350,5.0,8.0,22,0.00,,---,0.00,VWS V14.01,2013-05-03 18:15:00,
2013-05-03 12:20:00,46.1,5.0,30.31,North,355,0.0,0.0,18,0.00,,---,0.00,VWS V14.01,2013-05-03 18:20:00,
2013-05-03 12:25:00,47.3,7.1,30.31,NNE,17,10.0,10.0,19,0.00,,---,0.00,VWS V14.01,2013-05-03 18:25:00,
2013-05-03 12:30:00,46.8,6.7,30.30,NNE,15,6.0,6.0,19,0.00,,---,0.00,VWS V14.01,2013-05-03 18:30:00,
2013-05-03 12:35:00,46.8,6.7,30.30,NE,34,0.0,4.0,19,0.00,,---,0.00,VWS V14.01,2013-05-03 18:35:00,
2013-05-03 12:40:00,47.1,7.0,30.30,North,5,0.0,2.0,19,0.00,,---,0.00,VWS V14.01,2013-05-03 18:40:00,
2013-05-03 12:45:00,47.9,6.4,30.29,NE,54,4.0,8.0,18,0.00,,---,0.00,VWS V14.01,2013-05-03 18:45:00,
2013-05-03 12:50:00,48.4,8.1,30.28,NE,49,4.0,4.0,19,0.00,,---,0.00,VWS V14.01,2013-05-03 18:50:00,
2013-05-03 12:55:00,48.0,5.3,30.28,NE,54,3.0,6.0,17,0.00,,---,0.00,VWS V14.01,2013-05-03 18:55:00,
2013-05-03 13:00:00,49.3,6.3,30.27,SE,143,0.0,7.0,17,0.00,,---,0.00,VWS V14.01,2013-05-03 19:00:00,
2013-05-03 13:05:00,49.4,6.4,30.27,SE,146,6.0,7.0,17,0.00,,---,0.00,VWS V14.01,2013-05-03 19:05:00,
2013-05-03 13:10:00,49.6,6.6,30.27,South,181,5.0,6.0,17,0.00,,---,0.00,VWS V14.01,2013-05-03 19:10:00,
2013-05-03 13:15:00,49.6,5.3,30.26,SE,137,9.0,9.0,16,0.00,,---,0.00,VWS V14.01,2013-05-03 19:15:00,
2013-05-03 13:20:00,50.1,5.7,30.26,WNW,294,0.0,3.0,16,0.00,,---,0.00,VWS V14.01,2013-05-03 19:20:00,
2013-05-03 13:25:00,50.7,7.5,30.25,NNW,327,5.0,7.0,17,0.00,,---,0.00,VWS V14.01,2013-05-03 19:25:00,
2013-05-03 13:30:00,50.8,14.4,30.25,NW,316,9.0,10.0,23,0.00,,---,0.00,VWS V14.01,2013-05-03 19:30:00,
2013-05-03 13:35:00,49.9,5.5,30.25,North,351,4.0,5.0,16,0.00,,---,0.00,VWS V14.01,2013-05-03 19:35:00,
2013-05-03 13:40:00,49.4,6.4,30.25,North,351,9.0,9.0,17,0.00,,---,0.00,VWS V14.01,2013-05-03 19:40:00,
2013-05-03 13:45:00,50.2,9.6,30.24,NW,311,2.0,4.0,19,0.00,,---,0.00,VWS V14.01,2013-05-03 19:45:00,
2013-05-03 13:50:00,51.0,7.7,30.24,WNW,284,9.0,9.0,17,0.00,,---,0.00,VWS V14.01,2013-05-03 19:50:00,
2013-05-03 13:55:00,52.4,7.5,30.24,WNW,285,16.0,16.0,16,0.00,,---,0.00,VWS V14.01,2013-05-03 19:55:00,
2013-05-03 14:00:00,52.4,7.5,30.24,West,268,16.0,16.0,16,0.00,,---,0.00,VWS V14.01,2013-05-03 20:00:00,
2013-05-03 14:05:00,52.7,9.1,30.24,West,281,7.0,10.0,17,0.00,,---,0.00,VWS V14.01,2013-05-03 20:05:00,
2013-05-03 14:10:00,52.6,10.3,30.23,NNW,332,12.0,12.0,18,0.00,,---,0.00,VWS V14.01,2013-05-03 20:10:00,
2013-05-03 14:15:00,51.1,12.5,30.23,NW,317,9.0,12.0,21,0.00,,---,0.00,VWS V14.01,2013-05-03 20:15:00,
2013-05-03 14:20:00,52.2,7.4,30.23,West,277,6.0,10.0,16,0.00,,---,0.00,VWS V14.01,2013-05-03 20:20:00,
2013-05-03 14:25:00,52.7,7.8,30.22,West,269,10.0,17.0,16,0.00,,---,0.00,VWS V14.01,2013-05-03 20:25:00,
2013-05-03 14:30:00,53.1,8.1,30.22,WNW,303,17.0,17.0,16,0.00,,---,0.00,VWS V14.01,2013-05-03 20:30:00,
2013-05-03 14:35:00,53.2,8.2,30.22,West,265,16.0,16.0,16,0.00,,---,0.00,VWS V14.01,2013-05-03 20:35:00,
2013-05-03 14:40:00,53.2,8.2,30.21,WNW,292,14.0,14.0,16,0.00,,---,0.00,VWS V14.01,2013-05-03 20:40:00,
2013-05-03 14:45:00,53.3,9.6,30.21,WNW,299,9.0,14.0,17,0.00,,---,0.00,VWS V14.01,2013-05-03 20:45:00,
2013-05-03 14:50:00,53.3,8.3,30.20,WNW,290,12.0,16.0,16,0.00,,---,0.00,VWS V14.01,2013-05-03 20:50:00,
2013-05-03 14:55:00,53.3,8.3,30.20,WNW,289,12.0,15.0,16,0.00,,---,0.00,VWS V14.01,2013-05-03 20:55:00,
2013-05-03 15:00:00,52.9,7.9,30.20,West,269,11.0,11.0,16,0.00,,---,0.00,VWS V14.01,2013-05-03 21:00:00,
2013-05-03 15:05:00,52.9,7.9,30.20,West,265,10.0,12.0,16,0.00,,---,0.00,VWS V14.01,2013-05-03 21:05:00,
2013-05-03 15:11:00,52.6,9.1,30.19,West,278,10.0,14.0,17,0.00,,---,0.00,VWS V14.01,2013-05-03 21:11:00,
2013-05-03 15:16:00,53.1,8.1,30.19,WNW,284,14.0,14.0,16,0.00,,---,0.00,VWS V14.01,2013-05-03 21:16:00,
2013-05-03 15:21:00,53.2,8.2,30.19,West,277,11.0,11.0,16,0.00,,---,0.00,VWS V14.01,2013-05-03 21:21:00,
2013-05-03 15:26:00,53.5,8.4,30.18,West,270,11.0,14.0,16,0.00,,---,0.00,VWS V14.01,2013-05-03 21:26:00,
2013-05-03 15:31:00,54.1,8.9,30.18,West,261,12.0,15.0,16,0.00,,---,0.00,VWS V14.01,2013-05-03 21:31:00,
2013-05-03 15:36:00,54.0,8.8,30.17,West,281,15.0,15.0,16,0.00,,---,0.00,VWS V14.01,2013-05-03 21:36:00,
2013-05-03 15:41:00,53.6,9.9,30.17,West,275,11.0,15.0,17,0.00,,---,0.00,VWS V14.01,2013-05-03 21:41:00,
2013-05-03 15:46:00,53.9,11.4,30.17,WNW,302,10.0,10.0,18,0.00,,---,0.00,VWS V14.01,2013-05-03 21:46:00,
2013-05-03 15:51:00,54.4,9.2,30.17,WNW,299,6.0,14.0,16,0.00,,---,0.00,VWS V14.01,2013-05-03 21:51:00,
2013-05-03 15:56:00,54.3,9.1,30.16,NW,319,12.0,14.0,16,0.00,,---,0.00,VWS V14.01,2013-05-03 21:56:00,
2013-05-03 16:01:00,53.9,11.4,30.16,West,271,12.0,12.0,18,0.00,,---,0.00,VWS V14.01,2013-05-03 22:01:00,
2013-05-03 16:06:00,53.7,8.6,30.16,West,261,12.0,16.0,16,0.00,,---,0.00,VWS V14.01,2013-05-03 22:06:00,
2013-05-03 16:11:00,53.3,12.1,30.15,WNW,290,7.0,14.0,19,0.00,,---,0.00,VWS V14.01,2013-05-03 22:11:00,
2013-05-03 16:16:00,53.1,9.4,30.15,West,276,5.0,7.0,17,0.00,,---,0.00,VWS V14.01,2013-05-03 22:16:00,
2013-05-03 16:21:00,53.2,9.5,30.15,West,277,4.0,12.0,17,0.00,,---,0.00,VWS V14.01,2013-05-03 22:21:00,
2013-05-03 16:26:00,53.4,9.7,30.15,WNW,283,8.0,12.0,17,0.00,,---,0.00,VWS V14.01,2013-05-03 22:26:00,
2013-05-03 16:31:00,53.6,9.9,30.15,West,276,11.0,11.0,17,0.00,,---,0.00,VWS V14.01,2013-05-03 22:31:00,
2013-05-03 16:36:00,53.5,12.3,30.14,NW,325,6.0,9.0,19,0.00,,---,0.00,VWS V14.01,2013-05-03 22:36:00,
2013-05-03 16:41:00,53.4,9.7,30.14,WNW,298,7.0,14.0,17,0.00,,---,0.00,VWS V14.01,2013-05-03 22:41:00,
2013-05-03 16:46:00,53.8,12.5,30.14,West,279,11.0,11.0,19,0.00,,---,0.00,VWS V14.01,2013-05-03 22:46:00,
2013-05-03 16:51:00,53.8,16.9,30.14,NW,324,10.0,10.0,23,0.00,,---,0.00,VWS V14.01,2013-05-03 22:51:00,
2013-05-03 16:56:00,53.6,11.1,30.13,NW,312,8.0,13.0,18,0.00,,---,0.00,VWS V14.01,2013-05-03 22:56:00,
2013-05-03 17:01:00,53.2,12.0,30.13,WNW,297,9.0,10.0,19,0.00,,---,0.00,VWS V14.01,2013-05-03 23:01:00,
2013-05-03 17:06:00,53.1,13.1,30.13,WNW,293,8.0,8.0,20,0.00,,---,0.00,VWS V14.01,2013-05-03 23:06:00,
2013-05-03 17:11:00,53.2,12.0,30.13,WSW,258,17.0,17.0,19,0.00,,---,0.00,VWS V14.01,2013-05-03 23:11:00,
2013-05-03 17:16:00,52.7,9.1,30.12,West,261,10.0,11.0,17,0.00,,---,0.00,VWS V14.01,2013-05-03 23:16:00,
2013-05-03 17:22:00,52.6,12.7,30.12,West,267,9.0,10.0,20,0.00,,---,0.00,VWS V14.01,2013-05-03 23:22:00,
2013-05-03 17:27:00,52.6,13.8,30.12,NNW,341,7.0,11.0,21,0.00,,---,0.00,VWS V14.01,2013-05-03 23:27:00,
2013-05-03 17:32:00,52.4,10.1,30.12,West,266,7.0,9.0,18,0.00,,---,0.00,VWS V14.01,2013-05-03 23:32:00,
2013-05-03 17:37:00,52.3,11.3,30.12,WNW,294,3.0,11.0,19,0.00,,---,0.00,VWS V14.01,2013-05-03 23:37:00,
2013-05-03 17:42:00,52.4,11.4,30.11,WNW,284,2.0,2.0,19,0.00,,---,0.00,VWS V14.01,2013-05-03 23:42:00,
2013-05-03 17:47:00,52.5,11.4,30.11,West,271,4.0,10.0,19,0.00,,---,0.00,VWS V14.01,2013-05-03 23:47:00,
2013-05-03 17:52:00,52.6,12.7,30.11,WNW,294,4.0,8.0,20,0.00,,---,0.00,VWS V14.01,2013-05-03 23:52:00,
2013-05-03 17:57:00,52.8,11.7,30.11,WNW,291,9.0,9.0,19,0.00,,---,0.00,VWS V14.01,2013-05-03 23:57:00,
2013-05-03 18:02:00,52.7,10.4,30.11,WNW,292,1.0,4.0,18,0.00,,---,0.00,VWS V14.01,2013-05-04 00:02:00,
2013-05-03 18:07:00,52.3,11.3,30.11,NW,317,5.0,5.0,19,0.00,,---,0.00,VWS V14.01,2013-05-04 00:07:00,
2013-05-03 18:12:00,52.3,10.1,30.11,West,272,7.0,7.0,18,0.00,,---,0.00,VWS V14.01,2013-05-04 00:12:00,
2013-05-03 18:17:00,52.3,12.4,30.10,NW,304,6.0,7.0,20,0.00,,---,0.00,VWS V14.01,2013-05-04 00:17:00,
2013-05-03 18:22:00,52.2,10.0,30.10,West,280,7.0,10.0,18,0.00,,---,0.00,VWS V14.01,2013-05-04 00:22:00,
2013-05-03 18:27:00,51.8,12.0,30.10,NW,315,5.0,7.0,20,0.00,,---,0.00,VWS V14.01,2013-05-04 00:27:00,
2013-05-03 18:32:00,51.7,9.6,30.10,West,276,6.0,6.0,18,0.00,,---,0.00,VWS V14.01,2013-05-04 00:32:00,
2013-05-03 18:37:00,51.5,11.8,30.10,NW,317,7.0,9.0,20,0.00,,---,0.00,VWS V14.01,2013-05-04 00:37:00,
2013-05-03 18:42:00,51.2,10.4,30.10,NW,309,6.0,7.0,19,0.00,,---,0.00,VWS V14.01,2013-05-04 00:42:00,
2013-05-03 18:47:00,51.2,11.5,30.10,NW,307,7.0,7.0,20,0.00,,---,0.00,VWS V14.01,2013-05-04 00:47:00,
2013-05-03 18:52:00,51.1,11.4,30.10,NW,304,6.0,6.0,20,0.00,,---,0.00,VWS V14.01,2013-05-04 00:52:00,
2013-05-03 18:57:00,51.0,10.2,30.10,West,271,3.0,6.0,19,0.00,,---,0.00,VWS V14.01,2013-05-04 00:57:00,
2013-05-03 19:02:00,51.0,13.5,30.10,West,268,7.0,8.0,22,0.00,,---,0.00,VWS V14.01,2013-05-04 01:02:00,
2013-05-03 19:07:00,50.8,12.3,30.09,West,271,6.0,6.0,21,0.00,,---,0.00,VWS V14.01,2013-05-04 01:07:00,
2013-05-03 19:12:00,50.8,12.3,30.09,West,275,3.0,3.0,21,0.00,,---,0.00,VWS V14.01,2013-05-04 01:12:00,
2013-05-03 19:17:00,50.6,13.2,30.09,West,275,3.0,5.0,22,0.00,,---,0.00,VWS V14.01,2013-05-04 01:17:00,
2013-05-03 19:22:00,50.2,12.8,30.09,West,276,5.0,5.0,22,0.00,,---,0.00,VWS V14.01,2013-05-04 01:22:00,
2013-05-03 19:27:00,49.2,14.0,30.08,West,281,6.0,7.0,24,0.00,,---,0.00,VWS V14.01,2013-05-04 01:27:00,
2013-05-03 19:32:00,48.5,13.4,30.08,WNW,282,5.0,5.0,24,0.00,,---,0.00,VWS V14.01,2013-05-04 01:32:00,
2013-05-03 19:37:00,47.8,13.7,30.08,WNW,282,5.0,5.0,25,0.00,,---,0.00,VWS V14.01,2013-05-04 01:37:00,
2013-05-03 19:42:00,46.9,19.3,30.08,WNW,284,7.0,8.0,33,0.00,,---,0.00,VWS V14.01,2013-05-04 01:42:00,
2013-05-03 19:47:00,45.7,13.6,30.08,WNW,284,6.0,6.0,27,0.00,,---,0.00,VWS V14.01,2013-05-04 01:47:00,
2013-05-03 19:52:00,44.7,20.0,30.08,WNW,286,6.0,7.0,37,0.00,,---,0.00,VWS V14.01,2013-05-04 01:52:00,
2013-05-03 19:57:00,42.9,20.8,30.08,WNW,287,7.0,8.0,41,0.00,,---,0.00,VWS V14.01,2013-05-04 01:57:00,
2013-05-03 20:02:00,42.0,18.9,30.08,WNW,287,3.0,3.0,39,0.00,,---,0.00,VWS V14.01,2013-05-04 02:02:00,
2013-05-03 20:08:00,41.4,18.9,30.08,WNW,287,0.0,0.0,40,0.00,,---,0.00,VWS V14.01,2013-05-04 02:08:00,
2013-05-03 20:13:00,41.1,18.6,30.08,WNW,287,0.0,0.0,40,0.00,,---,0.00,VWS V14.01,2013-05-04 02:13:00,
2013-05-03 20:18:00,40.6,18.8,30.08,WNW,287,0.0,1.0,41,0.00,,---,0.00,VWS V14.01,2013-05-04 02:18:00,
2013-05-03 20:23:00,40.1,18.3,30.08,WNW,287,0.0,2.0,41,0.00,,---,0.00,VWS V14.01,2013-05-04 02:23:00,
2013-05-03 20:28:00,39.7,18.0,30.08,WNW,287,6.0,6.0,41,0.00,,---,0.00,VWS V14.01,2013-05-04 02:28:00,
2013-05-03 20:33:00,39.4,19.8,30.08,WNW,287,1.0,8.0,45,0.00,,---,0.00,VWS V14.01,2013-05-04 02:33:00,
2013-05-03 20:38:00,38.9,18.3,30.08,WNW,287,2.0,3.0,43,0.00,,---,0.00,VWS V14.01,2013-05-04 02:38:00,
2013-05-03 20:43:00,38.6,19.1,30.08,WNW,287,0.0,1.0,45,0.00,,---,0.00,VWS V14.01,2013-05-04 02:43:00,
2013-05-03 20:48:00,38.4,19.4,30.08,WNW,287,2.0,2.0,46,0.00,,---,0.00,VWS V14.01,2013-05-04 02:48:00,
2013-05-03 20:53:00,38.1,18.6,30.08,WNW,287,0.0,0.0,45,0.00,,---,0.00,VWS V14.01,2013-05-04 02:53:00,
2013-05-03 20:58:00,37.8,17.9,30.08,WNW,287,8.0,8.0,44,0.00,,---,0.00,VWS V14.01,2013-05-04 02:58:00,
2013-05-03 21:03:00,37.4,18.5,30.09,NNW,340,3.0,7.0,46,0.00,,---,0.00,VWS V14.01,2013-05-04 03:03:00,
2013-05-03 21:08:00,37.0,20.1,30.08,NNW,340,2.0,5.0,50,0.00,,---,0.00,VWS V14.01,2013-05-04 03:08:00,
2013-05-03 21:13:00,36.7,18.4,30.08,NW,319,6.0,7.0,47,0.00,,---,0.00,VWS V14.01,2013-05-04 03:13:00,
2013-05-03 21:18:00,37.0,17.1,30.08,WNW,302,4.0,7.0,44,0.00,,---,0.00,VWS V14.01,2013-05-04 03:18:00,
2013-05-03 21:23:00,37.4,18.0,30.08,WNW,302,3.0,3.0,45,0.00,,---,0.00,VWS V14.01,2013-05-04 03:23:00,
2013-05-03 21:28:00,37.4,19.0,30.08,WNW,302,3.0,3.0,47,0.00,,---,0.00,VWS V14.01,2013-05-04 03:28:00,
2013-05-03 21:33:00,36.8,18.5,30.08,WNW,302,2.0,4.0,47,0.00,,---,0.00,VWS V14.01,2013-05-04 03:33:00,
2013-05-03 21:38:00,36.4,19.1,30.08,NW,313,6.0,9.0,49,0.00,,---,0.00,VWS V14.01,2013-05-04 03:38:00,
2013-05-03 21:43:00,36.2,17.9,30.09,NW,313,0.0,0.0,47,0.00,,---,0.00,VWS V14.01,2013-05-04 03:43:00,
2013-05-03 21:48:00,35.8,19.0,30.09,NW,316,8.0,8.0,50,0.00,,---,0.00,VWS V14.01,2013-05-04 03:48:00,
2013-05-03 21:53:00,35.3,19.5,30.09,NW,323,5.0,6.0,52,0.00,,---,0.00,VWS V14.01,2013-05-04 03:53:00,
2013-05-03 21:58:00,34.7,18.4,30.08,NW,323,1.0,1.0,51,0.00,,---,0.00,VWS V14.01,2013-05-04 03:58:00,
2013-05-03 22:01:00,34.5,16.9,30.08,NW,323,0.0,1.0,48,0.00,,---,0.00,VWS V14.01,2013-05-04 04:01:00,
2013-05-03 22:02:00,34.4,18.2,30.09,NW,323,0.0,0.0,51,0.00,,---,0.00,VWS V14.01,2013-05-04 04:02:00,
2013-05-03 22:07:00,34.1,18.3,30.08,NW,323,3.0,3.0,52,0.00,,---,0.00,VWS V14.01,2013-05-04 04:07:00,
2013-05-03 22:12:00,33.5,17.8,30.08,NW,323,4.0,4.0,52,0.00,,---,0.00,VWS V14.01,2013-05-04 04:12:00,
2013-05-03 22:17:00,33.3,18.5,30.08,NW,323,3.0,3.0,54,0.00,,---,0.00,VWS V14.01,2013-05-04 04:17:00,
2013-05-03 22:22:00,33.3,17.1,30.08,NW,323,3.0,4.0,51,0.00,,---,0.00,VWS V14.01,2013-05-04 04:22:00,
2013-05-03 22:27:00,33.5,17.8,30.08,NW,323,4.0,4.0,52,0.00,,---,0.00,VWS V14.01,2013-05-04 04:27:00,
2013-05-03 22:32:00,33.5,18.6,30.08,NW,323,8.0,8.0,54,0.00,,---,0.00,VWS V14.01,2013-05-04 04:32:00,
2013-05-03 22:37:00,33.0,19.0,30.07,NW,325,7.0,10.0,56,0.00,,---,0.00,VWS V14.01,2013-05-04 04:37:00,
2013-05-03 22:42:00,32.8,19.7,30.08,NNW,329,5.0,7.0,58,0.00,,---,0.00,VWS V14.01,2013-05-04 04:42:00,
2013-05-03 22:47:00,32.6,18.7,30.08,NNW,329,0.0,0.0,56,0.00,,---,0.00,VWS V14.01,2013-05-04 04:47:00,
2013-05-03 22:52:00,32.4,18.5,30.08,NNW,329,0.0,0.0,56,0.00,,---,0.00,VWS V14.01,2013-05-04 04:52:00,
2013-05-03 22:58:00,32.3,18.4,30.08,NNW,328,1.0,1.0,56,0.00,,---,0.00,VWS V14.01,2013-05-04 04:58:00,
2013-05-03 23:03:00,32.1,19.0,30.07,NNW,328,3.0,5.0,58,0.00,,---,0.00,VWS V14.01,2013-05-04 05:03:00,
2013-05-03 23:08:00,31.7,19.0,30.07,NNW,329,7.0,9.0,59,0.00,,---,0.00,VWS V14.01,2013-05-04 05:08:00,
2013-05-03 23:13:00,31.3,18.6,30.07,NNW,332,5.0,8.0,59,0.00,,---,0.00,VWS V14.01,2013-05-04 05:13:00,
2013-05-03 23:18:00,31.3,19.0,30.07,NNW,332,3.0,6.0,60,0.00,,---,0.00,VWS V14.01,2013-05-04 05:18:00,
2013-05-03 23:23:00,31.2,19.0,30.07,NNW,332,3.0,5.0,60,0.00,,---,0.00,VWS V14.01,2013-05-04 05:23:00,
2013-05-03 23:28:00,31.1,18.9,30.07,NNW,332,0.0,0.0,60,0.00,,---,0.00,VWS V14.01,2013-05-04 05:28:00,
2013-05-03 23:33:00,31.0,18.8,30.08,NNW,332,4.0,4.0,60,0.00,,---,0.00,VWS V14.01,2013-05-04 05:33:00,
2013-05-03 23:38:00,30.8,18.2,30.07,NNW,332,0.0,0.0,59,0.00,,---,0.00,VWS V14.01,2013-05-04 05:38:00,
2013-05-03 23:43:00,30.6,19.5,30.07,NNW,332,0.0,0.0,63,0.00,,---,0.00,VWS V14.01,2013-05-04 05:43:00,
2013-05-03 23:48:00,30.4,18.2,30.07,NNW,332,0.0,0.0,60,0.00,,---,0.00,VWS V14.01,2013-05-04 05:48:00,
2013-05-03 23:53:00,30.3,18.1,30.08,NNW,332,4.0,4.0,60,0.00,,---,0.00,VWS V14.01,2013-05-04 05:53:00,
2013-05-03 23:58:00,30.2,18.4,30.08,NNW,332,6.0,7.0,61,0.00,,---,0.00,VWS V14.01,2013-05-04 05:58:00,